Location: ??
(34.7252°N, 135.5457°E)
Time: 09:43:34
(UTC+00:00)

Cosmos 2061 Rocket - Pass Details

Date: 24 September 2020
Orbit: 966 x 1012 km, 82.9° (Epoch: 23 October)

Event Time Altitude Azimuth Distance (km) Brightness Sun altitude
Rises 19:44:21 0° 351° (N) 3,752 7.1 -13.9°
Reaches altitude 10° 19:46:54 10° 350° (N) 2,798 6.4 -13.3°
Maximum altitude 19:53:19 73° 266° (W) 1,053 4.0 -12.0°
Drops below altitude 10° 19:59:39 10° 183° (S) 2,769 6.3 -10.7°
Sets 20:02:10 0° 182° (S) 3,710 7.0 -10.2°
